FW0960 Weather Reports


Display with metric or nautical units.
time (UTC)temp
F
wind
direction
speed
MPH
gust
MPH
rain 1hr
in
rain 24hr
in
rain mn
in
humidity
%
barometer
mb
20260505223819 72 345 1.0 2.0 0.00 0.00 0.00 66 1012.8
20260505222812 73 355 1.0 2.0 0.00 0.00 0.00 65 1012.8
20260505221816 73 355 1.0 2.0 0.00 0.00 0.00 65 1012.9
20260505220810 74 314 1.0 3.0 0.00 0.00 0.00 64 1012.8
20260505220316 74 278 1.0 3.0 0.00 0.00 0.00 64 1012.8
20260505215807 74 355 1.0 2.0 0.00 0.00 0.00 64 1012.6
20260505215305 74 298 1.0 2.0 0.00 0.00 0.00 63 1012.5
20260505214805 74 344 1.0 2.0 0.00 0.00 0.00 63 1012.6
20260505213759 75 350 1.0 2.0 0.00 0.00 0.00 63 1012.5
20260505212246 75 355 1.0 2.0 0.00 0.00 0.00 61 1012.4
20260505211744 76 355 1.0 2.0 0.00 0.00 0.00 61 1012.6
20260505211242 76 351 1.0 2.0 0.00 0.00 0.00 61 1012.7
20260505210244 76 0 1.0 3.0 0.00 0.00 0.00 60 1012.6
20260505205238 77 350 1.0 3.0 0.00 0.00 0.00 59 1012.4
20260505204739 77 355 1.0 3.0 0.00 0.00 0.00 60 1012.3
20260505204238 77 355 1.0 2.0 0.00 0.00 0.00 60 1012.3
20260505203745 77 351 0.0 2.0 0.00 0.00 0.00 61 1012.4
20260505203235 77 355 1.0 2.0 0.00 0.00 0.00 60 1012.4
20260505202739 78 355 1.0 2.0 0.00 0.00 0.00 60 1012.5
20260505202236 78 355 1.0 2.0 0.00 0.00 0.00 58 1012.5
20260505201742 78 355 1.0 2.0 0.00 0.00 0.00 58 1012.7
20260505201230 79 355 1.0 2.0 0.00 0.00 0.00 58 1012.7
20260505200730 79 351 1.0 2.0 0.00 0.00 0.00 57 1012.7
20260505200231 79 351 1.0 2.0 0.00 0.00 0.00 57 1012.8
20260505195732 79 355 1.0 3.0 0.00 0.00 0.00 57 1012.7
20260505195229 79 350 1.0 3.0 0.00 0.00 0.00 57 1012.8
20260505194216 80 39 1.0 3.0 0.00 0.00 0.00 56 1012.7
20260505193718 80 72 1.0 3.0 0.00 0.00 0.00 56 1012.8
20260505192712 83 0 1.0 4.0 0.00 0.00 0.00 49 1012.9
20260505192211 83 344 1.0 4.0 0.00 0.00 0.00 40 1012.9
20260505191205 83 314 1.0 2.0 0.00 0.00 0.00 41 1012.9
20260505190702 83 266 1.0 2.0 0.00 0.00 0.00 42 1013.0
20260505190203 83 305 1.0 3.0 0.00 0.00 0.00 40 1012.9
20260505185702 83 213 1.0 3.0 0.00 0.00 0.00 39 1013.0
20260505183709 82 111 1.0 4.0 0.00 0.00 0.00 48 1012.9
20260505183204 82 150 1.0 3.0 0.00 0.00 0.00 46 1013.0
20260505182728 82 331 0.0 2.0 0.00 0.00 0.00 47 1013.1
20260505182203 82 297 1.0 4.0 0.00 0.00 0.00 51 1013.0
20260505181209 82 166 1.0 4.0 0.00 0.00 0.00 49 1013.2
20260505180711 82 74 1.0 4.0 0.00 0.00 0.00 48 1013.2
20260505180206 82 252 0.0 3.0 0.00 0.00 0.00 51 1013.2
20260505175657 82 109 0.0 3.0 0.00 0.00 0.00 49 1013.3
20260505175150 81 198 1.0 6.0 0.00 0.00 0.00 52 1013.4
20260505174648 81 333 1.0 6.0 0.00 0.00 0.00 48 1013.4
20260505173636 81 127 1.0 6.0 0.00 0.00 0.00 49 1013.3
20260505173138 81 123 1.0 4.0 0.00 0.00 0.00 49 1013.4
20260505172640 80 119 1.0 4.0 0.00 0.00 0.00 49 1013.4
20260505172138 80 133 1.0 5.0 0.00 0.00 0.00 49 1013.4
20260505171137 80 185 1.0 4.0 0.00 0.00 0.00 48 1013.4
20260505170135 80 105 1.0 3.0 0.00 0.00 0.00 49 1013.4
20260505165634 80 225 0.0 3.0 0.00 0.00 0.00 51 1013.5
20260505165143 80 148 0.0 3.0 0.00 0.00 0.00 52 1013.6
20260505164135 79 153 0.0 4.0 0.00 0.00 0.00 49 1013.5
20260505163636 79 130 1.0 4.0 0.00 0.00 0.00 51 1013.5
20260505162633 78 180 0.0 3.0 0.00 0.00 0.00 51 1013.7
20260505162138 78 133 0.0 3.0 0.00 0.00 0.00 53 1013.8
20260505161633 78 146 0.0 3.0 0.00 0.00 0.00 53 1013.9
20260505161129 78 150 0.0 3.0 0.00 0.00 0.00 53 1013.8
20260505160631 78 181 1.0 2.0 0.00 0.00 0.00 53 1014.0
20260505160133 77 165 1.0 3.0 0.00 0.00 0.00 54 1014.0
20260505153144 76 219 0.0 4.0 0.00 0.00 0.00 57 1013.9
20260505151629 75 161 1.0 4.0 0.00 0.00 0.00 56 1014.0
20260505151128 74 99 1.0 4.0 0.00 0.00 0.00 56 1014.0
20260505150625 74 117 1.0 3.0 0.00 0.00 0.00 58 1014.1
20260505150124 74 182 1.0 3.0 0.00 0.00 0.00 58 1014.1
20260505140605 71 103 1.0 3.0 0.00 0.00 0.00 63 1014.3
20260505124604 62 117 0.0 3.0 0.00 0.00 0.00 85 1014.2
20260505124103 61 162 0.0 4.0 0.00 0.00 0.00 85 1014.1
20260505123101 62 163 1.0 4.0 0.00 0.00 0.00 84 1014.1
20260505122604 62 113 0.0 2.0 0.00 0.00 0.00 84 1014.1
20260505122104 63 90 0.0 4.0 0.00 0.00 0.00 82 1014.1
20260505120603 64 193 1.0 7.0 0.00 0.00 0.00 77 1014.1
20260505120100 63 43 0.0 7.0 0.00 0.00 0.00 77 1014.1
20260505115601 63 153 0.0 9.0 0.00 0.00 0.00 78 1014.1
20260505115104 63 151 0.0 9.0 0.00 0.00 0.00 77 1014.1
20260505114105 63 139 0.0 4.0 0.00 0.00 0.00 78 1014.1
20260505113605 62 155 0.0 4.0 0.00 0.00 0.00 78 1014.1
20260505113103 62 178 0.0 2.0 0.00 0.00 0.00 78 1014.1
20260505112555 62 144 0.0 3.0 0.00 0.00 0.00 79 1014.0
20260505112059 62 153 1.0 3.0 0.00 0.00 0.00 79 1014.0
20260505111547 62 153 0.0 4.0 0.00 0.00 0.00 79 1014.1
20260505111044 62 165 0.0 5.0 0.00 0.00 0.00 79 1014.0
20260505110538 62 162 0.0 5.0 0.00 0.00 0.00 79 1014.1
20260505101035 62 131 0.0 2.0 0.00 0.00 0.00 77 1013.6
20260505100533 62 123 0.0 4.0 0.00 0.00 0.00 77 1013.5
20260505095032 62 142 0.0 0.0 0.00 0.00 0.00 77 1013.3
20260505094533 62 142 0.0 0.0 0.00 0.00 0.00 78 1013.3
20260505093534 62 142 0.0 0.0 0.00 0.00 0.00 78 1013.2
20260505093029 61 142 0.0 0.0 0.00 0.00 0.00 79 1013.2
20260505092524 61 142 0.0 0.0 0.00 0.00 0.00 79 1013.1
20260505092032 61 142 0.0 0.0 0.00 0.00 0.00 79 1013.1
20260505091526 61 142 0.0 0.0 0.00 0.00 0.00 80 1013.1
20260505091028 61 142 0.0 0.0 0.00 0.00 0.00 80 1013.1
20260505090028 62 142 0.0 1.0 0.00 0.00 0.00 80 1013.0
20260505084527 62 146 0.0 3.0 0.00 0.00 0.00 81 1013.1
20260505084019 62 150 0.0 2.0 0.00 0.00 0.00 81 1013.1
20260505083524 61 172 0.0 2.0 0.00 0.00 0.00 83 1013.1
20260505083017 61 171 0.0 2.0 0.00 0.00 0.00 83 1013.1
20260505082518 61 143 0.0 2.0 0.00 0.00 0.00 83 1013.1
20260505081508 60 155 0.0 2.0 0.00 0.00 0.00 85 1013.1
20260505081011 60 155 0.0 2.0 0.00 0.00 0.00 86 1013.1
20260505080512 60 127 0.0 2.0 0.00 0.00 0.00 86 1013.1
20260505080010 60 141 0.0 2.0 0.00 0.00 0.00 87 1013.1
20260505075503 59 136 0.0 1.0 0.00 0.00 0.00 88 1013.1
20260505075001 59 140 0.0 2.0 0.00 0.00 0.00 88 1013.2
20260505074503 59 140 0.0 2.0 0.00 0.00 0.00 88 1013.1
20260505074003 59 190 0.0 4.0 0.00 0.00 0.00 89 1013.1
20260505073502 59 197 0.0 4.0 0.00 0.00 0.00 89 1013.2
20260505073004 59 205 0.0 2.0 0.00 0.00 0.00 89 1013.0
20260505072502 59 87 0.0 5.0 0.00 0.00 0.00 89 1013.0
20260505072003 59 99 0.0 5.0 0.00 0.00 0.00 90 1012.9
20260505071503 59 284 0.0 2.0 0.00 0.00 0.00 90 1012.9
20260505070509 59 153 0.0 3.0 0.00 0.00 0.00 90 1012.8
20260505070006 59 168 0.0 3.0 0.00 0.00 0.00 90 1012.9
20260505065003 59 129 0.0 3.0 0.00 0.00 0.00 90 1012.9
20260505064005 59 123 0.0 2.0 0.00 0.00 0.00 90 1012.9
20260505063502 59 146 0.0 1.0 0.00 0.00 0.00 90 1012.8
20260505063004 59 150 0.0 1.0 0.00 0.00 0.00 90 1012.8
20260505062502 59 144 0.0 2.0 0.00 0.00 0.00 90 1012.9
20260505061503 59 130 0.0 1.0 0.00 0.00 0.00 90 1012.8
20260505061006 59 131 0.0 1.0 0.00 0.00 0.00 89 1012.9
20260505060503 60 136 0.0 2.0 0.00 0.00 0.00 89 1012.9
20260505055505 60 159 0.0 2.0 0.00 0.00 0.00 87 1012.9
20260505055007 61 122 0.0 1.0 0.00 0.00 0.00 87 1012.9
20260505054505 61 124 0.0 3.0 0.00 0.00 0.00 86 1012.9
20260505054003 60 126 0.0 3.0 0.00 0.00 0.00 86 1012.9
20260505053506 61 120 0.0 3.0 0.00 0.00 0.00 86 1012.9
20260505053004 60 119 0.0 3.0 0.00 0.00 0.00 86 1013.0
20260505052501 60 222 0.0 3.0 0.00 0.00 0.00 87 1012.9
20260505051504 60 200 0.0 2.0 0.00 0.00 0.00 87 1012.9
20260505051004 60 182 1.0 2.0 0.00 0.00 0.00 87 1013.0
20260505050508 60 152 0.0 2.0 0.00 0.00 0.00 88 1013.1
20260505040945 62 131 0.0 4.0 0.00 0.00 0.00 83 1013.1
20260505040444 62 131 0.0 4.0 0.00 0.00 0.00 81 1013.2
20260505035445 62 181 0.0 3.0 0.00 0.00 0.00 82 1013.2
20260505034447 62 178 0.0 2.0 0.00 0.00 0.00 82 1013.1
20260505033949 62 177 0.0 2.0 0.00 0.00 0.00 81 1013.1
20260505033449 62 254 0.0 1.0 0.00 0.00 0.00 81 1013.2
20260505032447 62 254 0.0 1.0 0.00 0.00 0.00 80 1013.0
20260505031940 62 254 0.0 1.0 0.00 0.00 0.00 80 1013.0
20260505031444 62 256 0.0 1.0 0.00 0.00 0.00 80 1012.9
20260505030942 62 257 0.0 1.0 0.00 0.00 0.00 80 1013.0
20260505030438 62 257 0.0 1.0 0.00 0.00 0.00 80 1013.1
20260505025937 62 344 0.0 1.0 0.00 0.00 0.00 80 1013.0
20260505025437 62 344 0.0 1.0 0.00 0.00 0.00 80 1013.2
20260505024935 62 344 0.0 1.0 0.00 0.00 0.00 80 1013.0
20260505024433 62 346 0.0 0.0 0.00 0.00 0.00 80 1012.9
20260505023930 62 346 0.0 2.0 0.00 0.00 0.00 80 1013.0
20260505022931 62 347 0.0 1.0 0.00 0.00 0.00 80 1013.0
20260505022433 62 347 0.0 1.0 0.00 0.00 0.00 80 1012.9
20260505021437 62 347 0.0 1.0 0.00 0.00 0.00 79 1013.1
20260505020930 62 347 0.0 1.0 0.00 0.00 0.00 79 1013.1
20260505020442 62 347 0.0 2.0 0.00 0.00 0.00 79 1013.2
20260505015433 62 346 0.0 2.0 0.00 0.00 0.00 79 1013.1
20260505014930 62 347 0.0 2.0 0.00 0.00 0.00 79 1013.0
20260505013932 62 347 0.0 2.0 0.00 0.00 0.00 78 1013.2
20260505013431 62 347 0.0 1.0 0.00 0.00 0.00 78 1013.1
20260505012933 62 348 0.0 2.0 0.00 0.00 0.00 78 1013.1
20260505012432 62 348 0.0 2.0 0.00 0.00 0.00 78 1013.1
20260505012002 63 348 0.0 1.0 0.00 0.00 0.00 77 1013.1
20260505010937 63 348 0.0 2.0 0.00 0.00 0.00 76 1013.1
20260505010432 63 348 0.0 1.0 0.00 0.00 0.00 76 1013.1
20260505005942 63 348 0.0 1.0 0.00 0.00 0.00 76 1013.1
20260505005431 63 348 0.0 1.0 0.00 0.00 0.00 76 1013.1
20260505004433 63 348 0.0 1.0 0.00 0.00 0.00 75 1013.1
20260505003934 63 348 0.0 1.0 0.00 0.00 0.00 75 1013.0
20260505002931 64 348 0.0 1.0 0.00 0.00 0.00 74 1013.0
20260505002430 64 348 0.0 1.0 0.00 0.00 0.00 74 1013.1
20260505001430 64 348 0.0 1.0 0.00 0.00 0.00 73 1013.0
20260505000939 65 348 0.0 1.0 0.00 0.00 0.00 72 1013.0
20260504235934 65 340 0.0 1.0 0.00 0.00 0.00 71 1013.0
20260504235432 65 340 0.0 2.0 0.00 0.00 0.00 71 1012.9
20260504234938 65 340 0.0 2.0 0.00 0.00 0.00 70 1012.8
20260504233934 66 340 0.0 2.0 0.00 0.00 0.00 69 1012.6
20260504232931 67 340 0.0 2.0 0.00 0.00 0.00 68 1012.6
20260504232432 67 340 0.0 2.0 0.00 0.00 0.00 67 1012.6
20260504231931 67 340 0.0 2.0 0.00 0.00 0.00 67 1012.5
20260504231432 67 340 1.0 2.0 0.00 0.00 0.00 66 1012.5
20260504230931 67 339 0.0 2.0 0.00 0.00 0.00 65 1012.5
20260504230432 68 339 0.0 2.0 0.00 0.00 0.00 65 1012.5
20260504225929 68 339 0.0 2.0 0.00 0.00 0.00 64 1012.5
20260504225437 68 338 0.0 2.0 0.00 0.00 0.00 63 1012.5
20260504224934 68 336 1.0 2.0 0.00 0.00 0.00 63 1012.5
20260504224433 69 336 0.0 3.0 0.00 0.00 0.00 62 1012.3
20260504223930 69 336 1.0 3.0 0.00 0.00 0.00 62 1012.4